KC0UFP Weather Reports


time (UTC)temp
F
wind
direction
speed
knots
gust
knots
rain 1hr
in
rain 24hr
in
rain mn
in
humidity
%
barometer
mb
20260504184528 79 244 11.3 26.1 0.00 0.00 0.00 37 1009.5
20260504184023 79 229 8.7 22.6 0.00 0.00 0.00 38 1009.6
20260504183521 79 274 13.0 18.2 0.00 0.00 0.00 38 1009.6
20260504183019 79 265 18.2 20.0 0.00 0.00 0.00 38 1009.8
20260504182515 79 231 14.8 18.2 0.00 0.00 0.00 38 1009.8
20260504182013 79 241 11.3 27.8 0.00 0.00 0.00 39 1010.0
20260504181510 79 237 8.7 20.0 0.00 0.00 0.00 36 1009.9
20260504181008 79 220 13.0 16.5 0.00 0.00 0.00 36 1010.0
20260504180507 78 237 10.4 18.2 0.00 0.00 0.00 39 1010.3
20260504180005 78 247 13.9 19.1 0.00 0.00 0.00 39 1010.2
20260504175502 78 253 13.0 26.9 0.00 0.00 0.00 38 1010.1
20260504174959 78 239 9.6 22.6 0.00 0.00 0.00 40 1010.1
20260504174456 78 251 10.4 19.1 0.00 0.00 0.00 38 1010.4
20260504173954 78 216 13.9 18.2 0.00 0.00 0.00 37 1010.4
20260504173450 78 233 11.3 24.3 0.00 0.00 0.00 38 1010.5
20260504172947 78 225 20.9 26.1 0.00 0.00 0.00 38 1010.6
20260504172443 78 247 10.4 20.0 0.00 0.00 0.00 38 1010.4
20260504171940 77 256 5.2 21.7 0.00 0.00 0.00 38 1010.4
20260504171437 78 242 18.2 20.9 0.00 0.00 0.00 39 1010.5
20260504170934 78 242 9.6 32.2 0.00 0.00 0.00 39 1010.4
20260504170430 78 247 6.1 21.7 0.00 0.00 0.00 39 1010.4
20260504160349 77 258 7.8 19.1 0.00 0.00 0.00 40 1011.1
20260504150814 73 251 7.8 17.4 0.00 0.00 0.00 52 1011.7
20260504150311 73 240 11.3 13.9 0.00 0.00 0.00 52 1011.5
20260504141241 69 236 6.1 13.0 0.00 0.00 0.00 62 1012.2
20260504140737 69 233 7.8 13.9 0.00 0.00 0.00 63 1012.1
20260504140233 68 254 3.5 7.8 0.00 0.00 0.00 65 1012.1
20260504130702 64 255 5.2 12.2 0.00 0.00 0.00 73 1012.3
20260504130157 63 239 6.1 10.4 0.00 0.00 0.00 74 1012.0
20260504120122 59 242 2.6 5.2 0.00 0.00 0.00 79 1012.1
20260504110549 60 243 2.6 7.0 0.00 0.00 0.00 76 1011.5
20260504100511 61 259 1.7 7.8 0.00 0.00 0.00 73 1011.5
20260504081904 62 224 6.1 13.0 0.00 0.00 0.00 67 1011.5
20260504081401 62 236 7.0 11.3 0.00 0.00 0.00 67 1011.4
20260504080856 62 233 5.2 13.0 0.00 0.00 0.00 66 1011.6
20260504080354 62 261 4.3 7.8 0.00 0.00 0.00 67 1011.5
20260504070321 64 253 11.3 11.3 0.00 0.00 0.00 64 1012.3
20260504060241 64 242 7.0 10.4 0.00 0.00 0.00 63 1013.0
20260504050710 64 244 5.2 7.8 0.00 0.00 0.00 64 1013.2
20260504050206 64 257 6.1 6.1 0.00 0.00 0.00 63 1013.2
20260504045704 64 233 3.5 6.1 0.00 0.00 0.00 64 1013.4
20260504045204 64 237 4.3 11.3 0.00 0.00 0.00 64 1013.5
20260504044702 64 245 4.3 8.7 0.00 0.00 0.00 64 1013.5
20260504044159 64 240 4.3 7.0 0.00 0.00 0.00 64 1013.6
20260504043656 64 216 2.6 8.7 0.00 0.00 0.00 63 1013.5
20260504043153 64 293 2.6 7.0 0.00 0.00 0.00 63 1013.4
20260504042650 64 253 4.3 11.3 0.00 0.00 0.00 63 1013.3
20260504042147 64 229 4.3 7.8 0.00 0.00 0.00 63 1013.7
20260504041643 65 241 1.7 10.4 0.00 0.00 0.00 62 1013.4
20260504041138 65 245 3.5 7.8 0.00 0.00 0.00 62 1013.5
20260504040636 65 249 2.6 8.7 0.00 0.00 0.00 62 1013.5
20260504040133 64 242 3.5 7.0 0.00 0.00 0.00 62 1013.6
20260504035629 65 251 3.5 6.1 0.00 0.00 0.00 62 1013.6
20260504035126 64 239 4.3 7.8 0.00 0.00 0.00 63 1013.7
20260504034624 64 230 1.7 6.1 0.00 0.00 0.00 63 1013.5
20260504034121 64 208 1.7 4.3 0.00 0.00 0.00 64 1013.6
20260504033619 64 266 2.6 5.2 0.00 0.00 0.00 64 1013.7
20260504033116 64 249 2.6 6.1 0.00 0.00 0.00 64 1013.6
20260504032612 64 238 0.0 4.3 0.00 0.00 0.00 63 1013.6
20260504032109 65 229 2.6 5.2 0.00 0.00 0.00 63 1013.7
20260504031607 64 185 0.0 6.1 0.00 0.00 0.00 64 1013.6
20260504031103 64 237 7.8 7.8 0.00 0.00 0.00 63 1013.8
20260504030600 64 234 1.7 5.2 0.00 0.00 0.00 64 1013.7
20260504030056 64 241 2.6 4.3 0.00 0.00 0.00 64 1013.8
20260504025553 64 239 2.6 5.2 0.00 0.00 0.00 64 1013.9
20260504025050 64 238 1.7 5.2 0.00 0.00 0.00 64 1013.8
20260504024547 64 252 2.6 6.1 0.00 0.00 0.00 64 1013.9
20260504024044 65 204 1.7 6.1 0.00 0.00 0.00 64 1013.7
20260504023540 65 229 2.6 5.2 0.00 0.00 0.00 64 1013.6
20260504023036 65 241 1.7 7.0 0.00 0.00 0.00 63 1013.6
20260504022532 65 246 2.6 7.8 0.00 0.00 0.00 62 1013.9
20260504022029 65 247 3.5 6.1 0.00 0.00 0.00 62 1013.6
20260504021526 65 235 3.5 7.0 0.00 0.00 0.00 61 1013.6
20260504021023 66 231 3.5 6.1 0.00 0.00 0.00 60 1013.5
20260504020520 66 238 4.3 7.8 0.00 0.00 0.00 60 1013.6
20260504020017 66 243 3.5 6.1 0.00 0.00 0.00 59 1013.4
20260504015513 66 222 2.6 7.8 0.00 0.00 0.00 58 1013.6
20260504015009 66 269 2.6 6.1 0.00 0.00 0.00 58 1013.5
20260504014505 66 249 3.5 5.2 0.00 0.00 0.00 57 1013.3
20260504014003 67 246 2.6 6.1 0.00 0.00 0.00 57 1013.4
20260504013501 67 210 2.6 7.8 0.00 0.00 0.00 56 1013.3
20260504012956 67 238 4.3 6.1 0.00 0.00 0.00 55 1013.4
20260504012454 67 253 5.2 7.0 0.00 0.00 0.00 54 1013.4
20260504011952 68 245 5.2 10.4 0.00 0.00 0.00 54 1013.4
20260504011448 68 217 1.7 7.0 0.00 0.00 0.00 53 1013.5
20260504010944 68 241 4.3 7.0 0.00 0.00 0.00 52 1013.3
20260504010440 68 260 6.1 7.8 0.00 0.00 0.00 51 1013.3
20260504005936 68 267 4.3 9.6 0.00 0.00 0.00 51 1013.2
20260504005433 69 256 4.3 7.8 0.00 0.00 0.00 50 1013.5
20260504004931 69 239 3.5 5.2 0.00 0.00 0.00 50 1013.4
20260504004428 69 229 4.3 7.0 0.00 0.00 0.00 49 1013.3
20260504003925 69 245 4.3 6.1 0.00 0.00 0.00 49 1013.3
20260504003421 69 246 5.2 8.7 0.00 0.00 0.00 49 1013.5
20260504002918 70 227 4.3 8.7 0.00 0.00 0.00 47 1013.3
20260504002415 70 269 5.2 12.2 0.00 0.00 0.00 46 1013.7
20260504001913 71 248 5.2 13.9 0.00 0.00 0.00 45 1013.8
20260504001410 71 255 5.2 7.0 0.00 0.00 0.00 45 1013.4
20260504000906 71 231 4.3 13.0 0.00 0.00 0.00 44 1013.6
20260504000404 71 247 5.2 10.4 0.00 0.00 0.00 44 1013.7
20260503235901 71 247 3.5 11.3 0.00 0.00 0.00 44 1013.5
20260503235359 72 248 9.6 13.9 0.00 0.00 0.00 43 1014.0
20260503234856 72 247 7.0 9.6 0.00 0.00 0.00 42 1013.8
20260503234354 72 238 13.0 19.1 0.00 0.00 0.00 41 1013.7
20260503233851 72 233 7.0 13.9 0.00 0.00 0.00 41 1013.8
20260503233347 72 246 5.2 16.5 0.00 0.00 0.00 41 1013.7
20260503232844 73 215 14.8 14.8 0.00 0.00 0.00 40 1013.8
20260503232341 73 235 4.3 14.8 0.00 0.00 0.00 41 1014.2
20260503231839 73 255 4.3 10.4 0.00 0.00 0.00 40 1014.4
20260503231336 73 253 3.5 11.3 0.00 0.00 0.00 40 1014.7
20260503230832 73 237 7.8 13.9 0.00 0.00 0.00 39 1014.4
20260503230329 73 254 5.2 12.2 0.00 0.00 0.00 39 1014.4
20260503225827 73 258 7.0 9.6 0.00 0.00 0.00 39 1014.4
20260503225322 73 260 5.2 11.3 0.00 0.00 0.00 37 1014.4
20260503224818 73 241 7.0 14.8 0.00 0.00 0.00 37 1014.7
20260503224316 73 262 5.2 13.0 0.00 0.00 0.00 38 1014.4
20260503223814 73 240 5.2 11.3 0.00 0.00 0.00 36 1014.7
20260503223311 73 231 7.8 17.4 0.00 0.00 0.00 36 1014.6
20260503222807 73 239 5.2 13.9 0.00 0.00 0.00 36 1014.6
20260503222306 73 233 8.7 13.9 0.00 0.00 0.00 35 1014.8
20260503221803 73 239 11.3 11.3 0.00 0.00 0.00 34 1014.7
20260503221301 73 245 7.0 13.0 0.00 0.00 0.00 35 1014.8
20260503220757 74 249 12.2 12.2 0.00 0.00 0.00 34 1014.9
20260503220254 74 257 6.1 10.4 0.00 0.00 0.00 34 1014.7
20260503215751 73 246 5.2 13.0 0.00 0.00 0.00 35 1014.7
20260503215248 73 246 10.4 13.0 0.00 0.00 0.00 35 1014.8
20260503214746 73 248 7.8 14.8 0.00 0.00 0.00 34 1014.9
20260503214242 73 277 5.2 11.3 0.00 0.00 0.00 34 1015.2
20260503213741 73 260 6.1 14.8 0.00 0.00 0.00 34 1015.1
20260503213238 73 262 6.1 9.6 0.00 0.00 0.00 34 1015.4
20260503212734 73 258 6.1 11.3 0.00 0.00 0.00 34 1015.3
20260503212232 73 228 6.1 15.6 0.00 0.00 0.00 32 1015.4
20260503211730 73 266 7.8 10.4 0.00 0.00 0.00 33 1015.4
20260503211225 73 242 11.3 14.8 0.00 0.00 0.00 33 1015.7
20260503210721 73 239 7.8 13.0 0.00 0.00 0.00 33 1015.6
20260503210219 72 273 7.8 12.2 0.00 0.00 0.00 32 1015.9
20260503205714 72 244 8.7 13.0 0.00 0.00 0.00 32 1016.0
20260503205210 72 240 4.3 12.2 0.00 0.00 0.00 31 1016.0
20260503204707 72 240 6.1 16.5 0.00 0.00 0.00 32 1016.1
20260503204205 72 232 10.4 22.6 0.00 0.00 0.00 32 1016.0
20260503203702 72 213 4.3 13.0 0.00 0.00 0.00 33 1016.2
20260503203159 73 278 9.6 12.2 0.00 0.00 0.00 33 1016.6
20260503202656 72 275 6.1 9.6 0.00 0.00 0.00 31 1016.6
20260503202154 72 245 7.0 16.5 0.00 0.00 0.00 31 1016.8
20260503201652 72 230 5.2 9.6 0.00 0.00 0.00 32 1016.7
20260503201149 71 243 7.8 19.1 0.00 0.00 0.00 32 1016.8
20260503200645 72 245 5.2 12.2 0.00 0.00 0.00 34 1017.0
20260503200142 71 229 7.0 12.2 0.00 0.00 0.00 34 1017.0
20260503195639 71 226 4.3 13.9 0.00 0.00 0.00 32 1017.1
20260503195136 71 231 5.2 13.9 0.00 0.00 0.00 34 1017.5
20260503194633 71 235 5.2 12.2 0.00 0.00 0.00 36 1017.5
20260503194128 71 241 7.0 16.5 0.00 0.00 0.00 37 1017.7
20260503193625 71 257 4.3 13.0 0.00 0.00 0.00 36 1017.7
20260503193121 71 228 6.1 13.9 0.00 0.00 0.00 36 1018.0
20260503192616 70 244 4.3 11.3 0.00 0.00 0.00 36 1017.9
20260503192112 70 250 5.2 11.3 0.00 0.00 0.00 38 1018.1
20260503191610 70 281 7.8 13.0 0.00 0.00 0.00 37 1018.1
20260503191106 69 277 9.6 14.8 0.00 0.00 0.00 37 1018.1
20260503190604 70 284 5.2 12.2 0.00 0.00 0.00 37 1018.2
20260503190101 69 240 1.7 13.0 0.00 0.00 0.00 40 1018.7
20260503185557 70 247 5.2 14.8 0.00 0.00 0.00 38 1018.6
20260503185056 69 230 9.6 12.2 0.00 0.00 0.00 37 1018.7